EN

Hourly Weather Dzialek

Today, 25 October, Sunday

Time Temperature Precipitation Wind Pressure Humidity
00:00 +11°C° 0.1 mm 3 mps 745 mmHg 89%
01:00 +11°C° 0.1 mm 3 mps 745 mmHg 90%
02:00 +10°C° 0 mm 3 mps 745 mmHg 91%
03:00 +10°C° 0 mm 3 mps 744 mmHg 93%
04:00 +9°C° 0 mm 3 mps 744 mmHg 94%
05:00 +9°C° 0 mm 3 mps 744 mmHg 94%
06:00 +9°C° 0 mm 3 mps 744 mmHg 94%
07:00 +9°C° 0 mm 3 mps 744 mmHg 94%
08:00 +10°C° 0 mm 4 mps 744 mmHg 88%
09:00 +11°C° 0 mm 4 mps 744 mmHg 82%
10:00 +12°C° 0 mm 4 mps 744 mmHg 77%
11:00 +13°C° 0 mm 5 mps 744 mmHg 74%
12:00 +14°C° 0 mm 5 mps 744 mmHg 71%
13:00 +15°C° 0 mm 5 mps 744 mmHg 68%
14:00 +14°C° 0 mm 4 mps 743 mmHg 70%
15:00 +14°C° 0 mm 4 mps 743 mmHg 72%
16:00 +13°C° 0 mm 4 mps 742 mmHg 74%
17:00 +13°C° 0 mm 4 mps 742 mmHg 77%
18:00 +12°C° 0 mm 4 mps 742 mmHg 80%
19:00 +12°C° 0 mm 4 mps 742 mmHg 83%
20:00 +12°C° 0 mm 4 mps 742 mmHg 85%
21:00 +11°C° 0 mm 4 mps 742 mmHg 87%
22:00 +11°C° 0 mm 4 mps 742 mmHg 88%
23:00 +11°C° 0 mm 4 mps 741 mmHg 89%

Tomorrow, 26 October, Monday

Time Temperature Precipitation Wind Pressure Humidity
00:00 +11°C° 0 mm 4 mps 741 mmHg 89%
01:00 +10°C° 0 mm 4 mps 741 mmHg 89%
02:00 +10°C° 0 mm 4 mps 741 mmHg 91%
03:00 +10°C° 0 mm 3 mps 741 mmHg 92%
04:00 +9°C° 0 mm 3 mps 740 mmHg 94%
05:00 +9°C° 0 mm 3 mps 740 mmHg 94%
06:00 +9°C° 0 mm 3 mps 740 mmHg 95%
07:00 +8°C° 0 mm 3 mps 740 mmHg 96%
08:00 +9°C° 0 mm 3 mps 740 mmHg 92%
09:00 +10°C° 0 mm 3 mps 740 mmHg 88%
10:00 +11°C° 0 mm 3 mps 740 mmHg 85%
11:00 +12°C° 0 mm 3 mps 740 mmHg 82%
12:00 +13°C° 0 mm 3 mps 740 mmHg 79%
13:00 +14°C° 0 mm 3 mps 740 mmHg 76%
14:00 +13°C° 0 mm 3 mps 739 mmHg 78%
15:00 +14°C° 0 mm 2 mps 739 mmHg 80%
16:00 +14°C° 0 mm 2 mps 739 mmHg 83%
17:00 +13°C° 0.1 mm 2 mps 739 mmHg 84%
18:00 +13°C° 0.1 mm 2 mps 739 mmHg 86%
19:00 +13°C° 0.1 mm 2 mps 740 mmHg 87%
20:00 +13°C° 0.2 mm 2 mps 740 mmHg 89%
21:00 +12°C° 0.2 mm 2 mps 740 mmHg 91%
22:00 +12°C° 0.2 mm 2 mps 740 mmHg 93%
23:00 +12°C° 0 mm 1 mps 740 mmHg 93%

Day after tomorrow, 27 October, Tuesday

Time Temperature Precipitation Wind Pressure Humidity
00:00 +12°C° 0 mm 1 mps 740 mmHg 93%
01:00 +11°C° 0 mm 1 mps 740 mmHg 93%
02:00 +11°C° 0 mm 1 mps 741 mmHg 93%
03:00 +11°C° 0 mm 1 mps 741 mmHg 92%
04:00 +10°C° 0 mm 2 mps 741 mmHg 92%
05:00 +11°C° 0 mm 1 mps 741 mmHg 92%
06:00 +10°C° 0 mm 1 mps 741 mmHg 92%
07:00 +9°C° 0 mm 0 mps 741 mmHg 92%
08:00 +10°C° 0 mm 0 mps 742 mmHg 89%
09:00 +10°C° 0 mm 0 mps 742 mmHg 86%
10:00 +11°C° 0 mm 0 mps 742 mmHg 83%
11:00 +12°C° 0 mm 1 mps 742 mmHg 83%
12:00 +12°C° 0 mm 1 mps 742 mmHg 83%
13:00 +12°C° 0 mm 1 mps 742 mmHg 83%
14:00 +11°C° 0.5 mm 1 mps 742 mmHg 85%
15:00 +10°C° 0.5 mm 2 mps 742 mmHg 88%
16:00 +9°C° 0.5 mm 2 mps 742 mmHg 90%
17:00 +9°C° 0.6 mm 2 mps 742 mmHg 90%
18:00 +9°C° 0.6 mm 2 mps 742 mmHg 90%
19:00 +9°C° 0.6 mm 2 mps 742 mmHg 90%
20:00 +9°C° 0.1 mm 2 mps 742 mmHg 90%
21:00 +9°C° 0.1 mm 2 mps 743 mmHg 89%
22:00 +9°C° 0.1 mm 2 mps 743 mmHg 89%
23:00 +8°C° 0 mm 3 mps 743 mmHg 90%

28 October, Wednesday

Time Temperature Precipitation Wind Pressure Humidity
00:00 +8°C° 0 mm 3 mps 743 mmHg 91%
01:00 +7°C° 0 mm 3 mps 743 mmHg 93%
02:00 +7°C° 0 mm 3 mps 743 mmHg 92%
03:00 +7°C° 0 mm 3 mps 743 mmHg 92%
04:00 +7°C° 0 mm 3 mps 743 mmHg 92%
05:00 +7°C° 0 mm 3 mps 743 mmHg 92%
06:00 +5°C° 0 mm 3 mps 743 mmHg 91%
07:00 +5°C° 0 mm 4 mps 743 mmHg 90%
08:00 +6°C° 0 mm 4 mps 743 mmHg 85%
09:00 +8°C° 0 mm 5 mps 743 mmHg 79%
10:00 +9°C° 0 mm 6 mps 743 mmHg 74%
11:00 +9°C° 0 mm 6 mps 743 mmHg 70%
12:00 +10°C° 0 mm 6 mps 743 mmHg 66%
13:00 +11°C° 0 mm 6 mps 743 mmHg 62%
14:00 +10°C° 0 mm 5 mps 743 mmHg 66%
15:00 +10°C° 0 mm 5 mps 743 mmHg 70%
16:00 +10°C° 0 mm 4 mps 743 mmHg 74%
17:00 +10°C° 0 mm 4 mps 743 mmHg 75%
18:00 +10°C° 0 mm 4 mps 743 mmHg 75%
19:00 +8°C° 0 mm 4 mps 743 mmHg 76%
20:00 +8°C° 0 mm 4 mps 743 mmHg 77%
21:00 +8°C° 0 mm 4 mps 743 mmHg 79%
22:00 +8°C° 0 mm 4 mps 743 mmHg 80%
23:00 +7°C° 0 mm 4 mps 743 mmHg 82%

29 October, Thursday

Time Temperature Precipitation Wind Pressure Humidity
00:00 +7°C° 0 mm 4 mps 743 mmHg 84%
01:00 +7°C° 0 mm 4 mps 743 mmHg 85%
02:00 +7°C° 0 mm 4 mps 743 mmHg 85%
03:00 +6°C° 0 mm 4 mps 743 mmHg 85%
04:00 +6°C° 0 mm 4 mps 742 mmHg 86%
05:00 +6°C° 0 mm 4 mps 742 mmHg 86%
06:00 +6°C° 0 mm 4 mps 742 mmHg 87%
07:00 +6°C° 0 mm 4 mps 742 mmHg 87%
08:00 +7°C° 0.2 mm 4 mps 743 mmHg 87%
09:00 +7°C° 0.2 mm 4 mps 743 mmHg 87%
10:00 +8°C° 0.2 mm 5 mps 743 mmHg 88%
11:00 +9°C° 0.2 mm 5 mps 743 mmHg 81%
12:00 +10°C° 0.2 mm 5 mps 743 mmHg 74%
13:00 +10°C° 0.2 mm 6 mps 744 mmHg 68%
14:00 +10°C° 0.1 mm 5 mps 744 mmHg 70%
15:00 +10°C° 0.1 mm 4 mps 744 mmHg 73%
16:00 +10°C° 0.1 mm 4 mps 745 mmHg 76%
17:00 +9°C° 0 mm 3 mps 745 mmHg 78%
18:00 +9°C° 0 mm 3 mps 745 mmHg 81%
19:00 +8°C° 0 mm 3 mps 746 mmHg 83%
20:00 +8°C° 0 mm 3 mps 746 mmHg 83%
21:00 +7°C° 0 mm 4 mps 746 mmHg 83%
22:00 +7°C° 0 mm 4 mps 746 mmHg 84%
23:00 +7°C° 0 mm 4 mps 746 mmHg 83%

30 October, Friday

Time Temperature Precipitation Wind Pressure Humidity
00:00 +7°C° 0 mm 4 mps 746 mmHg 83%
01:00 +7°C° 0 mm 5 mps 746 mmHg 83%
02:00 +7°C° 0 mm 5 mps 745 mmHg 83%
03:00 +8°C° 0 mm 5 mps 745 mmHg 83%
04:00 +8°C° 0 mm 6 mps 745 mmHg 83%
05:00 +8°C° 0.3 mm 6 mps 745 mmHg 85%
06:00 +9°C° 0.3 mm 6 mps 745 mmHg 87%
07:00 +9°C° 0.3 mm 6 mps 745 mmHg 89%
08:00 +10°C° 0 mm 6 mps 745 mmHg 88%
09:00 +10°C° 0 mm 6 mps 745 mmHg 87%
10:00 +11°C° 0 mm 6 mps 746 mmHg 86%
11:00 +11°C° 0 mm 6 mps 746 mmHg 85%
12:00 +13°C° 0 mm 6 mps 746 mmHg 83%
13:00 +13°C° 0 mm 5 mps 746 mmHg 82%
14:00 +13°C° 0 mm 5 mps 746 mmHg 82%
15:00 +13°C° 0 mm 5 mps 746 mmHg 82%
16:00 +13°C° 0 mm 5 mps 746 mmHg 82%
17:00 +13°C° 0 mm 5 mps 747 mmHg 82%
18:00 +12°C° 0 mm 5 mps 747 mmHg 81%
19:00 +12°C° 0 mm 5 mps 747 mmHg 80%
20:00 +12°C° 0 mm 4 mps 747 mmHg 81%
21:00 +12°C° 0 mm 4 mps 747 mmHg 81%
22:00 +12°C° 0 mm 4 mps 747 mmHg 82%
23:00 +11°C° 0 mm 4 mps 747 mmHg 83%
Show more